Погода в Сан-Жуан-ди-Мерити

Бразилия     22°48′05″S   43°21′54″W
темп.,
°C
ветер,
м/с
пор.,
м/с
влажн.,
%
обл.,
%
осадки,
мм/ч
давл.,
гПа
погр.,
м
27 февраля, сб
сб2700:00+24ююв1182100 7.6 1015224
03:00+23вюв1286100 11.4 1014278
06:00+23вюв1285100 1.1 1014276
09:00+26юв1169100 1.2 1016517
12:00+30вюв2253100 0.0 1016997
15:00+30юв3355100 0.1 10141081
18:00+27ююв2369100 0.6 1013498
21:00+26зсз1175100 1.1 1015224
28 февраля, вс
вс2800:00+25ссв117996 0.3 1015234
03:00+24всв118198 0.3 1013251
06:00+24сз018090 0.0 1014193
09:00+28з116495 0.0 1015493
12:00+33юв2241100 0.0 10151282
15:00+33юв3242100 0.0 10121313
18:00+29в455996 0.0 1012618
21:00+26в247396 0.7 1014325
1 марта, пн
пн100:00+25св127264 0.1 1014263
03:00+24сз117467 0.1 1013167
06:00+23ссз117510 0.0 1014164
09:00+29зсз125525 0.0 1014634
12:00+34вюв133824 0.0 10141580
15:00+34юв323913 0.0 10111592
18:00+30в355637 0.0 1011655
21:00+28всв236762 0.1 1014303
2 марта, вт
вт200:00+26с117178 0.0 1014194
03:00+25ссз117247 0.0 1013158
06:00+24ссз117178 0.0 1014140
09:00+30сз125257 0.0 1015546
12:00+36ссв123559 0.0 10141464
15:00+35ю113568 0.0 10121849
18:00+31юв235189 0.1 1012679
21:00+29с125894 0.1 1015280
3 марта, ср
ср300:00+27ссз126297 0.0 1015162
03:00+26сз236866 0.0 1014197
06:00+25сз127093 0.0 1015166
09:00+30зсз135396 0.0 1016559
12:00+36сз243498 0.0 10162037
15:00+33ююв434593 0.3 10141059
18:00+27всв116798 4.9 1014405
21:00+26всв237499 8.7 1016265